DateTimeUTC,F1_A11,F1_S11,BsB_S11,BsG_S11,BsR_S11,BbsB_S11,BbsG_S11,BbsR_S11,BaB_A11,BaG_A11,BaR_A11,Tu_S11,T_S11,Uu_S11,U_S11,P_S11,T1_A11
2021-12-16T21:00:00Z,00000200,21000000,,,,,,,-000.12,-000.05,0000.18,20.6,27.5,,00.0,0641.3,31.2
2021-12-16T21:01:00Z,00000200,21000000,,,,,,,0000.09,0000.23,-000.21,20.6,27.6,,00.0,0641.3,31.2
2021-12-16T21:02:00Z,00000200,21000000,,,,,,,0000.08,0000.37,0000.31,20.5,27.6,,00.0,0641.3,31.2
2021-12-16T21:03:00Z,00000200,61000000,,,,,,,0000.24,0000.23,-000.13,20.5,27.6,,00.0,0641.3,31.2
2021-12-16T21:04:00Z,00000200,41000000,0000.49,0000.01,-000.04,-000.14,0000.20,-000.12,0000.17,-000.54,0000.28,20.5,27.3,,00.0,0642.0,31.1
2021-12-16T21:05:00Z,00000200,01000000,0000.25,-000.31,0000.11,0000.63,0000.08,-000.02,0000.30,0000.36,0000.09,20.5,27.2,,00.0,0642.1,31.1
2021-12-16T21:06:00Z,00000200,01000000,0000.99,0000.02,0000.39,0000.07,0000.01,0000.24,-000.04,0000.17,0000.01,20.4,27.1,,00.0,0642.0,31.2
2021-12-16T21:07:00Z,00000200,01000000,-000.14,0000.23,0000.07,-000.08,0000.07,-000.26,0000.27,0000.24,-000.04,20.4,27.1,,00.0,0641.9,31.2
2021-12-16T21:08:00Z,00000200,01000000,0000.64,0000.06,0000.09,-000.25,0000.24,0000.09,0000.42,0000.17,0000.32,20.5,27.1,,00.0,0641.9,31.1
2021-12-16T21:09:00Z,00000200,01000000,0000.15,-000.24,-000.33,-000.16,-000.34,-000.61,-000.21,0000.01,0000.11,20.5,27.1,,00.0,0641.8,31.1
2021-12-16T21:10:00Z,00000200,01000000,0000.09,0000.14,0000.00,0000.14,-000.30,-000.26,0000.22,0000.11,-000.16,20.5,27.1,,00.0,0641.9,31.1
2021-12-16T21:11:00Z,00000200,01000000,0001.30,0000.27,-000.34,0000.41,0000.05,-000.10,0000.17,0000.38,0000.29,20.6,27.2,,00.0,0641.8,31.2
2021-12-16T21:12:00Z,00000200,01000000,0000.49,0000.15,0000.02,-000.09,-000.08,-000.01,0000.18,-000.05,-000.04,20.6,27.2,,00.0,0641.8,31.2
2021-12-16T21:13:00Z,00000200,01000000,0000.42,-000.13,-000.08,-000.31,0000.11,0000.04,0000.01,0000.01,0000.25,20.6,27.2,,00.0,0641.9,31.1
2021-12-16T21:14:00Z,00000200,01000000,-000.17,0000.08,0000.36,-000.08,0000.11,0000.20,0000.35,0000.42,0000.04,20.7,27.2,,00.0,0641.8,31.2
2021-12-16T21:15:00Z,00000200,01000000,0000.11,0000.05,0000.38,-000.57,-000.07,0000.07,0000.07,-000.17,-000.06,20.7,27.2,,00.0,0641.8,31.2
2021-12-16T21:16:00Z,00000200,01000000,-000.21,0000.15,0000.08,0000.68,-000.08,0000.03,-000.07,0000.20,-000.01,20.7,27.2,,00.0,0641.8,31.2
2021-12-16T21:17:00Z,00000200,01000000,0000.19,-000.11,-000.04,0000.06,-000.17,-000.09,0000.26,0000.09,0000.58,20.8,27.2,,00.0,0641.8,31.2
2021-12-16T21:18:00Z,00000200,01000000,0000.62,0000.23,0000.11,0000.10,0000.04,-000.13,0000.08,0000.01,0000.05,20.8,27.2,,00.0,0641.8,31.2
2021-12-16T21:19:00Z,00000200,01000000,0000.48,0000.09,-000.07,0000.12,0000.22,0000.16,0000.20,0000.10,-000.20,20.8,27.2,,00.0,0641.8,31.2
2021-12-16T21:20:00Z,00000200,01000000,-000.43,0000.16,0000.38,-000.55,-000.13,0000.23,0000.18,-000.06,0000.52,20.9,27.2,,00.0,0641.7,31.2
2021-12-16T21:21:00Z,00000200,01000000,0000.75,0000.14,0000.35,-000.20,0000.15,0000.34,-000.15,0000.54,-000.14,20.9,27.3,,00.0,0641.8,31.2
2021-12-16T21:22:00Z,00000200,01000000,0000.09,0000.03,-000.36,-000.63,0000.25,-000.25,0000.32,0000.41,0000.09,20.9,27.3,,00.0,0641.8,31.2
2021-12-16T21:23:00Z,00000200,01000000,0000.70,-000.02,-000.05,-000.27,-000.22,0000.21,-000.03,-000.45,-000.17,20.9,27.3,,00.0,0641.8,31.2
2021-12-16T21:24:00Z,00000200,01000000,0000.10,0000.20,0000.17,-000.26,0000.19,0000.25,0000.06,0000.42,0000.23,21.0,27.3,,00.0,0641.8,31.2
2021-12-16T21:25:00Z,00000200,01000000,0000.21,-000.11,0000.11,-000.17,0000.15,0000.05,0000.08,0000.09,0000.23,21.0,27.3,,00.0,0641.8,31.2
2021-12-16T21:26:00Z,00000200,01000000,-000.01,0000.18,0000.45,-000.32,-000.27,0000.20,-000.06,0000.13,0000.04,21.0,27.3,,00.0,0641.8,31.2
2021-12-16T21:27:00Z,00000200,01000000,0000.19,-000.07,-000.08,-000.59,0000.02,0000.10,0000.29,-000.22,-000.31,21.0,27.4,,00.0,0641.8,31.2
2021-12-16T21:28:00Z,00000200,01000000,0000.29,0000.22,0000.25,-000.16,0000.01,-000.18,-000.16,-000.04,-000.20,21.1,27.4,,00.0,0641.8,31.2
2021-12-16T21:29:00Z,00000200,01000000,0000.52,0000.06,-000.36,0000.12,0000.27,0000.06,0000.17,0000.35,0000.76,21.1,27.4,,00.0,0641.8,31.2
2021-12-16T21:30:00Z,00000200,01000000,0000.43,0000.24,0000.31,0000.17,-000.02,0000.26,0000.39,-000.02,-000.17,21.1,27.4,,00.0,0641.9,31.2
2021-12-16T21:31:00Z,00000200,01000000,0000.63,0000.41,-000.03,0000.14,0000.16,-000.12,-000.01,0000.08,0000.10,21.1,27.4,,00.0,0641.8,31.2
2021-12-16T21:32:00Z,00000200,01000000,-000.10,-000.21,0000.04,-000.12,0000.03,0000.25,-000.07,0000.01,-000.20,21.2,27.4,,00.0,0641.8,31.2
2021-12-16T21:33:00Z,00000200,01000000,0000.05,0000.32,-000.21,-000.42,0000.19,-000.23,0000.29,0000.20,0000.11,21.2,27.4,,00.0,0641.8,31.2
2021-12-16T21:34:00Z,00000200,01000000,0000.55,0000.36,0000.06,-000.31,0000.20,0000.05,-000.04,0000.02,0000.22,21.2,27.5,,00.0,0641.8,31.2
2021-12-16T21:35:00Z,00000200,01000000,0000.84,-000.12,0000.44,0000.12,-000.13,-000.12,-000.28,-000.06,0000.09,21.3,27.5,,00.0,0641.8,31.2
2021-12-16T21:36:00Z,00000200,01000000,-000.05,0000.04,0000.20,-000.60,-000.18,-000.35,0000.24,0000.07,0000.22,21.3,27.5,,00.0,0641.7,31.2
2021-12-16T21:37:00Z,00000200,01000000,-000.13,-000.38,0000.13,-000.30,0000.09,0000.32,0000.08,0000.16,-000.09,21.3,27.5,,00.0,0641.7,31.2
2021-12-16T21:38:00Z,00000200,01000000,-000.71,-000.00,0000.09,0000.33,-000.25,-000.03,0000.23,0000.20,-000.21,21.3,27.5,,00.0,0641.7,31.2
2021-12-16T21:39:00Z,00000200,01000000,0000.63,0000.24,0000.05,-001.08,0000.19,0000.16,-000.11,0000.01,0000.37,21.3,27.5,,00.0,0641.7,31.2
2021-12-16T21:40:00Z,00000200,01000000,-000.11,-000.27,0000.03,0000.69,0000.16,0000.25,0000.23,0000.20,0000.04,21.4,27.6,,00.0,0641.7,31.2
2021-12-16T21:41:00Z,00000200,01000000,-000.61,0000.33,-000.09,0000.19,0000.15,-000.04,-000.00,-000.05,0000.05,21.4,27.6,,00.0,0641.7,31.3
2021-12-16T21:42:00Z,00000200,01000000,0000.03,-000.15,0000.24,0000.17,-000.03,-000.07,0000.09,0000.09,0000.03,21.4,27.6,,00.0,0641.7,31.3
2021-12-16T21:43:00Z,00000200,01010000,0000.84,-000.00,0000.18,0000.20,0000.15,0000.10,0000.15,0000.30,0000.13,21.4,27.6,,00.0,0641.7,31.3
2021-12-16T21:44:00Z,00000200,01000000,0000.21,-000.02,0000.04,-000.25,-000.07,0000.01,-000.04,-000.32,-000.19,21.4,27.6,,00.0,0641.5,31.3
2021-12-16T21:45:00Z,00000200,01000000,0000.36,0000.20,0000.38,-000.01,0000.25,0000.12,0000.11,-000.21,-000.15,21.5,27.6,,00.0,0641.6,31.3
2021-12-16T21:46:00Z,00000200,01000000,0000.49,0000.20,0000.23,0000.03,0000.20,0000.10,0000.01,0000.59,0000.18,21.5,27.7,,00.0,0641.6,31.3
2021-12-16T21:47:00Z,00000200,01000000,-000.44,0000.05,-000.30,-000.07,-000.06,-000.30,0000.14,-000.06,0000.22,21.5,27.7,,00.0,0641.7,31.3
2021-12-16T21:48:00Z,00000200,01000000,0000.27,-000.09,-000.14,-000.91,-000.00,0000.03,-000.09,-000.21,-000.07,21.5,27.7,,00.0,0641.7,31.3
2021-12-16T21:49:00Z,00000200,01000000,0000.60,0000.04,0000.57,-000.26,0000.01,-000.02,0000.17,-000.01,0000.01,21.4,27.7,,00.0,0641.5,31.3
2021-12-16T21:50:00Z,00000200,01000000,0000.18,-000.20,-000.26,-000.41,-000.26,-000.04,-000.09,0000.72,0000.11,21.4,27.7,,00.0,0641.5,31.3
2021-12-16T21:51:00Z,00000200,01000000,0000.79,-000.00,-000.33,0000.38,0000.04,-000.49,-000.12,-000.29,0000.00,21.3,27.6,,00.0,0641.6,31.3
2021-12-16T21:52:00Z,00000200,01000000,0000.16,-000.06,-000.21,-000.00,0000.08,-000.10,0000.15,0000.08,0000.02,21.3,27.6,,00.0,0641.7,31.3
2021-12-16T21:53:00Z,00000200,01000000,0000.22,-000.28,0000.15,0000.01,-000.21,-000.01,0000.36,-000.04,0000.32,21.3,27.6,,00.0,0641.6,31.3
2021-12-16T21:54:00Z,00000200,01000000,0000.10,-000.16,-000.14,0000.19,0000.09,0000.22,0000.02,-000.07,-000.20,21.3,27.6,,00.0,0641.6,31.3
2021-12-16T21:55:00Z,00000200,01000000,-000.71,-000.03,0000.01,0000.50,-000.21,-000.26,0000.27,0000.11,0000.20,21.4,27.6,,00.0,0641.6,31.3
2021-12-16T21:56:00Z,00000200,01000000,0000.28,0000.08,-000.07,0000.56,0000.08,0000.12,-000.09,0000.46,0000.05,21.4,27.6,,00.0,0641.5,31.3
2021-12-16T21:57:00Z,00000200,41000000,,,,,,,-000.38,-000.69,-000.33,21.3,27.8,,00.0,0641.4,31.3
2021-12-16T21:58:00Z,00000200,61000000,,,,,,,0000.01,0000.50,0000.21,21.2,27.8,,00.0,0640.6,31.3
2021-12-16T21:59:00Z,00000200,21000000,,,,,,,-000.01,-000.14,-000.29,21.2,27.9,,00.0,0640.5,31.3
